www.pogodaiklimat.ru

Погода и климат >> Архив погоды >> Франция >> Шамбери


ПОГОДА в Шамбери

  • Прогноз погоды в Шамбери
  • Монитор погоды в Шамбери

АРХИВ ПОГОДЫ в Шамбери

Время (UTC), дата Ветер
(напр.,м/с)
 
Видим.   Явления Облачность Т
(С)
Тd
(С)
f
(%)
Тe
(С)
Тes
(С)
Комфортность P
(гПа)
Po
(гПа)
Тmin
(С)
Tmax
(С)
R
(мм)
R24
(мм)
S
(см)
10 16.09 Ю 1 18 км н/о +25.4 +15.4 54 +28 +28 жарко 1020.1 993.3
11 16.09 С 1 45 км н/о +26.6 +15.3 50 +29 +29 жарко 1019.5 992.8
12 16.09 С 2
{4}
45 км н/о +26.1 +15.5 52 +29 +29 жарко 1018.8 992.1 0
13 16.09 С 1 45 км н/о +28.5 +15.1 44 +31 +31 душно 1017.8 991.3
14 16.09 С 1 40 км н/о +29.0 +15.2 43 +32 +32 душно 1017.0 990.6
15 16.09 С 1
{4}
50 км н/о +28.8 +16.0 46 +32 +32 душно 1016.6 990.2 0
16 16.09 С 1 40 км н/о +29.1 +16.6 47 +33 +33 очень
душно
1016.1 989.7
17 16.09 С 1 19 км н/о +25.0 +16.7 60 +29 +29 душно 1016.2 989.5
18 16.09 ЮВ 1
{2}
19 км н/о +22.1 +15.4 66 +26 +26 душно 1016.6 989.6 +13.6 +29.8 0
19 16.09 Ю 1 35 км н/о +20.4 +15.2 72 +25 +25 комфорт 1017.4 990.2
20 16.09 Ю 1 30 км н/о +18.8 +15.1 79 +21 +21 комфорт 1017.8 990.5
21 16.09 Ю 1
{2}
40 км н/о +18.4 +15.1 81 +21 +21 комфорт 1018.1 990.7 0
22 16.09 Ю 1 30 км н/о +16.6 +14.2 86 +18 +18 1018.6 991.0
23 16.09 Ю 1 29 км н/о +16.3 +14.7 90 +18 +18 1018.6 991.0
00 17.09 штиль 0
{2}
26 км н/о +16.2 +14.4 89 +16 +16 1018.7 991.1 0
01 17.09 Ю 1 23 км н/о +15.3 +13.8 91 +16 +16 1018.6 990.9
02 17.09 Ю 1 18 км н/о +14.3 +12.8 91 +15 +15 1018.5 990.7
03 17.09 ЮВ 1
{2}
13 км н/о +14.3 +13.2 93 +15 +15 1018.6 990.8 0
04 17.09 ЮЗ 1 7000 м н/о +14.1 +13.0 93 +15 +15 1018.7 990.9
05 17.09 Ю 1 2900 м дымка н/о +13.2 +12.3 94 +14 +14 1018.9 991.0
06 17.09 Ю 1
{1}
12 км н/о +14.3 +13.5 95 +15 +15 1019.1 991.3 +13.0 +22.3 0.2 0
07 17.09 Ю 1 14 км н/о +16.6 +15.6 94 +18 +18 1018.9 991.3
08 17.09 С 1 19 км н/о +19.9 +15.1 74 +23 +23 комфорт 1018.8 991.5
09 17.09 С 1
{4}
19 км н/о +21.3 +16.0 72 +25 +25 комфорт 1018.5 991.4 0
10 17.09 С 1 19 км н/о +22.7 +16.0 66 +27 +27 душно 1017.8 990.8
11 17.09 С 1 19 км н/о +24.3 +15.2 57 +27 +27 жарко 1016.9 990.1
12 17.09 С 1
{4}
19 км н/о +26.4 +14.8 49 +29 +29 жарко 1016.0 989.4 0
13 17.09 С 1 50 км н/о +28.1 +15.7 47 +31 +31 душно 1015.2 988.8
14 17.09 СВ 1 18 км н/о +30.1 +15.0 40 +32 +32 жарко 1014.6 988.3
15 17.09 С 1
{6}
35 км н/о +30.4 +14.1 37 +32 +32 жарко 1014.1 987.9 0
16 17.09 С 1 40 км н/о +29.3 +12.7 36 +30 +30 жарко 1013.9 987.6
17 17.09 ЮВ 1 19 км н/о +24.3 +12.6 48 +26 +26 жарко 1014.4 987.6
18 17.09 Ю 1
{3}
16 км н/о +21.7 +11.4 52 +24 +24 комфорт 1014.5 987.5 +14.3 +31.1 0
19 17.09 ЮВ 1 30 км н/о +19.1 +11.1 60 +22 +22 комфорт 1015.4 988.1
20 17.09 Ю 1 35 км н/о +17.4 +11.4 68 +19 +19 1016.0 988.5
21 17.09 СЗ 1
{3}
35 км н/о +16.1 +11.0 72 +18 +18 1016.4 988.8 0
22 17.09 Ю 1 35 км н/о +14.9 +11.1 78 +16 +16 1016.5 988.8
23 17.09 Ю 1 35 км н/о +14.1 +10.7 80 +14 +14 1016.7 988.9
00 18.09 Ю 1
{3}
35 км н/о +13.9 +10.9 82 +14 +14 1017.1 989.3 0
01 18.09 ЮЗ 1 40 км 10/10
[]
+15.0 +12.3 84 +16 +16 1017.0 989.3
02 18.09 ЮВ 1 35 км 10/10
[]
+15.2 +12.0 81 +16 +16 1017.3 989.6
03 18.09 С 3
{8}
50 км н/о +18.3 +13.6 74 +19 +19 1016.9 989.5 0
04 18.09 С 3 35 км 9/9
[]
+18.0 +12.7 71 +18 +18 1016.9 989.5
05 18.09 С 3 35 км 9/9
[]
+17.7 +12.2 70 +18 +18 1017.4 989.9
06 18.09 С 4
{11}
35 км н/о +17.9 +11.5 66 +18 +18 1017.8 990.3 +13.0 +22.3 0
07 18.09 С 4 35 км н/о +18.1 +10.9 63 +18 +18 1018.3 990.8
08 18.09 С 3 35 км н/о +18.8 +11.6 63 +20 +20 1018.3 990.9
09 18.09 С 4
{9}
27 км н/о +19.8 +11.8 60 +21 +21 комфорт 1018.1 990.8 0
10 18.09 С 3 19 км н/о +21.2 +12.1 56 +23 +23 комфорт 1017.8 990.6
11 18.09 С 3 19 км 10/10
[]
+21.5 +12.1 55 +24 +24 комфорт 1017.8 990.7
12 18.09 С 3
{9}
27 км 10/0
[]
+22.0 +12.5 55 +25 +25 комфорт 1017.6 990.5 0
13 18.09 С 4 27 км 9/9
[]
+23.0 +12.0 50 +26 +26 жарко 1017.4 990.4
14 18.09 С 3 27 км 10/10
[]
+22.6 +12.2 52 +25 +25 комфорт 1017.4 990.4
15 18.09 С 3
{9}
50 км н/о +22.6 +12.5 53 +25 +25 комфорт 1017.1 990.1 0
16 18.09 СЗ 2 30 км н/о +22.4 +12.1 52 +25 +25 комфорт 1017.1 990.1
17 18.09 С 3 35 км н/о +20.7 +11.6 56 +23 +23 комфорт 1017.6 990.4
18 18.09 С 3
{10}
35 км н/о +19.8 +11.6 59 +22 +22 комфорт 1018.1 990.8 +17.8 +23.6 0
19 18.09 С 3 35 км н/о +18.9 +11.0 60 +20 +20 1018.7 991.3
20 18.09 С 4 30 км н/о +18.7 +11.0 61 +19 +19 1019.0 991.6
21 18.09 С 4
{11}
35 км н/о +18.0 +10.4 61 +18 +18 1019.6 992.1 0
22 18.09 С 4 40 км н/о +17.8 +9.2 57 +18 +18 1019.9 992.4
23 18.09 С 3 35 км н/о +16.9 +9.3 61 +17 +17 1020.1 992.5
00 19.09 С 3
{9}
35 км н/о +16.5 +9.7 64 +16 +16 1020.2 992.5 0
01 19.09 С 3 35 км н/о +15.9 +9.8 67 +15 +15 1020.2 992.5
02 19.09 С 3 35 км н/о +15.4 +8.8 65 +15 +15 1020.5 992.7
03 19.09 С 3
{10}
40 км н/о +15.0 +8.0 63 +14 +14 1020.3 992.5 0
04 19.09 С 4 40 км н/о +14.6 +7.9 64 +14 +14 1020.1 992.2
05 19.09 С 3 45 км н/о +14.1 +6.9 62 +13 +13 1020.3 992.4
06 19.09 С 3
{10}
40 км н/о +14.6 +6.9 60 +14 +14 1020.6 992.7 +14.0 +20.0 0
07 19.09 С 4 40 км 9/9 1200 м
[]
+15.7 +6.9 56 +15 +15 1020.7 992.9
08 19.09 С 4 19 км 10/10 1260 м
[]
+16.9 +7.3 53 +16 +16 1020.9 993.2
09 19.09 С 4
{12}
19 км 8/8 1000 м
[]
+18.0 +7.1 49 +18 +19 1021.0 993.4 0
10 19.09 С 4 19 км н/о +18.8 +7.6 48 +19 +19 1021.0 993.5
11 19.09 С 3 19 км 10/10 1410 м
[]
+20.4 +8.1 45 +22 +22 комфорт 1020.6 993.3
12 19.09 С 3
{9}
19 км н/о +20.8 +9.1 47 +23 +23 комфорт 1020.3 993.0 0
13 19.09 С 4 19 км н/о +21.5 +8.7 44 +23 +23 комфорт 1020.0 992.8
14 19.09 С 6
{10}
27 км н/о +22.0 +8.8 43 +23 +23 комфорт 1019.7 992.5
15 19.09 С 3
{10}
30 км н/о +22.2 +9.4 44 +24 +24 комфорт 1019.3 992.2 0
16 19.09 С 3 35 км н/о +21.4 +8.3 43 +23 +23 комфорт 1019.5 992.3
17 19.09 С 3 45 км н/о +19.9 +8.9 49 +21 +21 комфорт 1019.9 992.5
18 19.09 С 3
{10}
50 км н/о +19.1 +7.5 47 +20 +20 1020.2 992.8 +14.5 +22.5 0
19 19.09 С 3 50 км н/о +17.9 +7.0 49 +18 +18 1021.2 993.6
20 19.09 С 3 50 км н/о +17.5 +6.1 47 +18 +18 1021.9 994.2
21 19.09 С 3
{11}
50 км н/о +16.5 +6.0 50 +16 +16 1022.4 994.6 0
22 19.09 С 3 50 км н/о +15.8 +6.0 52 +15 +15 1022.9 995.1
23 19.09 С 3 50 км н/о +15.0 +6.0 55 +15 +15 1023.2 995.3
00 20.09 С 3
{8}
50 км н/о +14.8 +5.8 55 +14 +14 1023.6 995.6 0
01 20.09 С 3 50 км н/о +14.2 +5.8 57 +13 +13 1023.7 995.7
02 20.09 С 3 45 км н/о +13.6 +5.5 58 +13 +13 1023.9 995.8
03 20.09 С 3
{8}
45 км н/о +13.2 +6.3 63 +12 +12 1023.8 995.7 0
04 20.09 С 2 45 км н/о +12.8 +6.2 64 +12 +12 1023.8 995.6
05 20.09 СЗ 2 45 км н/о +12.3 +6.1 66 +12 +12 1023.8 995.6
06 20.09 С 5
{8}
40 км н/о +12.5 +6.1 65 +11 +11 1024.3 996.1 +12.2 +19.1 0
07 20.09 СВ 2 19 км н/о +13.1 +6.7 65 +13 +13 1024.7 996.6
08 20.09 С 3 19 км н/о +15.1 +6.1 55 +14 +14 1024.8 996.8
09 20.09 С 3
{9}
19 км н/о +16.6 +6.4 51 +16 +16 1024.4 996.6 0
10 20.09 С 3 40 км н/о +18.2 +7.9 51 +19 +19 1023.6 996.0
11 20.09 СЗ 2 45 км н/о +19.6 +8.0 47 +21 +21 комфорт 1022.9 995.4
12 20.09 С 2
{6}
55 км н/о +21.3 +8.9 45 +23 +23 комфорт 1022.0 994.7 0
13 20.09 СЗ 2 55 км н/о +22.7 +9.5 43 +24 +24 комфорт 1021.0 993.9
14 20.09 СЗ 2 19 км н/о +23.8 +10.1 42 +25 +25 комфорт 1020.3 993.3
15 20.09 СЗ 2
{5}
19 км н/о +24.2 +10.8 43 +25 +25 комфорт 1019.3 992.4 0
16 20.09 СЗ 2 19 км н/о +24.0 +11.0 44 +25 +25 комфорт 1018.9 992.0
17 20.09 С 1 19 км н/о +20.7 +11.9 57 +24 +24 комфорт 1019.2 992.0
18 20.09 С 3
{7}
40 км н/о +20.3 +11.2 56 +22 +22 комфорт 1019.3 992.0 +12.5 +24.3 0
19 20.09 С 3 40 км н/о +19.6 +10.0 54 +21 +21 комфорт 1019.9 992.5
20 20.09 С 3 40 км н/о +18.7 +9.7 56 +19 +19 1020.4 992.9
21 20.09 С 3
{9}
40 км н/о +18.0 +9.9 59 +18 +18 1020.5 993.0 0
22 20.09 С 2 40 км н/о +17.3 +10.2 63 +18 +18 1020.9 993.3
23 20.09 СЗ 1 35 км н/о +16.2 +10.3 68 +17 +17 1020.8 993.1
00 21.09 З 1
{5}
35 км н/о +15.4 +10.2 71 +16 +16 1020.9 993.1 0
01 21.09 СЗ 1 35 км н/о +14.7 +10.1 74 +15 +15 1021.0 993.1
02 21.09 ЮЗ 1 21 км н/о +12.7 +9.5 81 +14 +14 1021.1 993.0
03 21.09 Ю 1
{4}
18 км н/о +11.9 +8.9 82 +12 +12 1021.1 993.0 0
04 21.09 ЮВ 1 19 км н/о +11.3 +9.4 88 +12 +12 1021.0 992.8
05 21.09 Ю 1 17 км н/о +10.1 +8.4 89 +11 +11 1021.0 992.7
06 21.09 ЮВ 1
{2}
19 км н/о +10.4 +8.8 90 +11 +11 1020.9 992.6 +9.9 +20.3 0
07 21.09 ЮВ 1 17 км н/о +13.2 +11.3 88 +14 +14 1020.6 992.6
08 21.09 С 1 19 км н/о +17.0 +10.4 65 +18 +18 1020.1 992.5
09 21.09 С 1
{4}
19 км н/о +18.8 +9.8 56 +20 +20 1019.5 992.1 0
10 21.09 С 1 19 км н/о +20.8 +11.4 55 +24 +24 комфорт 1018.7 991.5
11 21.09 С 1 26 км н/о +22.0 +12.0 53 +24 +24 комфорт 1017.7 990.6
12 21.09 С 1
{4}
19 км н/о +22.6 +11.9 51 +25 +25 комфорт 1016.9 989.9 0
13 21.09 СЗ 1 35 км н/о +23.6 +12.9 51 +26 +26 жарко 1015.6 988.7
14 21.09 СЗ 1 19 км н/о +25.1 +12.7 46 +27 +27 жарко 1014.2 987.5
15 21.09 С 1
{4}
45 км н/о +25.6 +12.1 43 +27 +27 жарко 1013.9 987.2 0
16 21.09 С 1 35 км 9/9
[]
+22.6 +15.2 63 +26 +27 жарко 1013.3 986.4
17 21.09 Ю 1 19 км 9/9
[]
+21.7 +14.3 63 +25 +25 комфорт 1013.4 986.4
18 21.09 Ю 1
{3}
3300 м дымка 10/0
[]
+19.5 +14.9 75 +23 +23 комфорт 1014.0 986.8 +10.3 +25.8 0
19 21.09 ЮЗ 1 30 км 10/10
[]
+19.6 +14.8 74 +23 +23 комфорт 1013.9 986.7
20 21.09 В 1 30 км 9/9
[]
+18.8 +14.3 75 +21 +21 комфорт 1013.2 986.0
21 21.09 Ю 1
{3}
28 км 10/0
[]
+18.1 +14.2 78 +20 +20 1013.2 985.9 0
22 21.09 Ю 1 29 км 10/10
[]
+18.0 +14.1 78 +20 +20 1013.1 985.8
23 21.09 С 1 27 км 10/10
[]
+17.6 +14.1 80 +19 +19 1012.9 985.6
00 22.09 ЮВ 1
{2}
26 км 10/0
[]
+17.0 +14.1 83 +18 +18 1013.1 985.7 0
01 22.09 СЗ 1 27 км 10/10
[]
+17.3 +14.2 82 +19 +19 1013.3 985.9
02 22.09 З 1 26 км 8/8
[]
+17.0 +13.9 82 +19 +19 1013.1 985.7
03 22.09 Ю 1
{2}
15 км н/о +14.9 +13.3 90 +16 +16 1013.2 985.6 0
04 22.09 З 1 14 км н/о +13.8 +12.5 92 +15 +15 1013.2 985.5
05 22.09 В 1 15 км 9/9
[]
+14.2 +12.9 92 +15 +15 1013.2 985.5
06 22.09 ЮВ 1
{4}
17 км 10/0
[]
+15.1 +14.0 93 +16 +16 1013.1 985.5 +13.7 +20.3 0
07 22.09 ЮВ 1 19 км н/о +18.0 +14.3 79 +20 +20 1012.9 985.6
08 22.09 Ю 1 19 км н/о +19.6 +13.8 69 +22 +22 комфорт 1012.5 985.4
09 22.09 ЮЗ 1
{4}
19 км слаб. дождь 9/9 600 м
[]
+20.1 +14.0 68 +24 +28 комфорт 1012.3 985.2 0.0 0
10 22.09 В 1 18 км 10/1 1230 м
[]
+21.6 +13.2 59 +24 +29 комфорт 1011.4 984.5 0.0
11 22.09 С 1 40 км н/о +24.1 +13.3 51 +26 +26 жарко 1010.5 983.8
12 22.09 С 1
{5}
19 км 10/0
[]
+23.6 +14.3 56 +26 +26 жарко 1010.0 983.3 0.0 0
13 22.09 С 1 45 км 8/8
[]
+24.7 +14.2 52 +27 +29 жарко 1009.5 982.9
14 22.09 Ю 3 45 км 10/10 1500 м
[]
+24.5 +15.1 56 +27 +27 жарко 1009.4 982.8
15 22.09 Ю 2
{7}
45 км 10/10 1000 м
[]
+24.7 +14.8 54 +27 +29 жарко 1009.3 982.7 0
16 22.09 Ю 2 45 км 10/10 1500 м
[]
+24.4 +15.1 56 +27 +27 жарко 1009.6 983.0
17 22.09 ЮВ 3 35 км 10/10 1500 м
[]
+20.9 +17.3 80 +25 +25 комфорт 1010.2 983.3 1
18 22.09 С 1
{5}
45 км 10/10 1000 м
[]
+20.2 +17.8 86 +25 +25 комфорт 1010.3 983.3 +15.1 +25.7 1 0
19 22.09 ЮВ 3 1500 м сильн. дождь 10/10 900 м
[]
+17.2 +13.9 81 +17 +17 1012.9 985.5 3
20 22.09 В 3 4700 м дождь 10/9 720 м
[]
+15.5 +13.3 87 +15 +15 1015.3 987.7 7
21 22.09 ЮВ 1
{10}
4400 м дождь 10/10 300 м
[]
+15.1 +12.8 86 +16 +16 1016.6 988.9 16 0
22 22.09 ЮВ 2 4100 м дождь 10/10 720 м
[]
+14.8 +13.5 92 +15 +15 1017.6 989.9 4
23 22.09 ЮЗ 1 6000 м слаб. дождь 10/1 450 м
[]
+14.5 +13.4 93 +15 +15 1017.6 989.8 1
00 23.09 СВ 1
{4}
10 км 10/0 2000 м
[]
+14.4 +13.3 93 +15 +15 1018.1 990.3 6 0
01 23.09 В 1 55 км 10/10
[]
+14.1 +13.0 93 +15 +15 1017.8 990.0
02 23.09 ЮВ 1 50 км 10/1 90 м
[]
+13.9 +12.9 94 +15 +15 1017.7 989.9
03 23.09 З 1
{3}
50 км 10/10 100 м
[]
+13.5 +12.7 95 +14 +14 1017.8 989.9 0
04 23.09 ЮВ 1 16 км 9/9 330 м
[]
+12.9 +12.1 95 +13 +13 1018.0 990.1
05 23.09 З 1 30 км 10/9 300 м
[]
+13.5 +12.7 95 +14 +14 1018.6 990.7
06 23.09 ЮВ 1
{2}
19 км 10/10 300 м
[]
+13.6 +12.8 95 +14 +14 1019.0 991.1 +12.7 +20.3 22 0
07 23.09 Ю 1 40 км 10/6 400 м
[]
+14.3 +13.5 95 +15 +16 1019.0 991.2
08 23.09 В 1 45 км 9/9 360 м
[]
+15.1 +13.5 90 +16 +17 1019.2 991.5
09 23.09 З 1
{4}
45 км н/о +16.9 +13.2 79 +18 +18 1019.1 991.5 0
10 23.09 С 2 50 км н/о +18.9 +12.9 68 +21 +21 комфорт 1018.5 991.1

 

Местоположение метеостанции Шамбери (Франция): широта 45.63 долгота 5.87 высота над уровнем моря 235 м.

В архиве по умолчанию представлена погода в Шамбери за последнюю неделю. Архивные данные за месяц целиком и за предыдущие месяцы, начиная с января 2011 года, Вы можете получить, выбрав интересующий диапазон дат из раскрывающегося списка и нажав кнопку "Ввод!".


*Определитесь, кто Вы:
робот инопланетянин человек

Внимание! Время в таблицах - всемирное. Для получения местного времени необходимо прибавить поправку, которая равна 1 ч.

Смотрите также архив погоды в соседних городах и на ближайших метеорологических станциях:

Погода в Анси (Франция) (38 км)
Погода в Гренобле (Франция) (46 км)
Погода в Гренобль аэропорту (Франция) (51 км)
Погода в Амберьё-ан-Бюже (Франция) (57 км)
Погода в Лионе (Франция) (62 км)
Погода в Бур-сен-Морисе (Франция) (70 км)
Погода в Женеве (Швейцария) (72 км)
Погода в Лион аэропорту (Франция) (74 км)
Погода в Шанжене (Швейцария) (90 км)
Погода на Ла Доли (Швейцария) (91 км)

Пояснения к столбцам:

Ветер - указаны скорость ветра в м/с - средняя за 10 мин, порывы в срок и между сроками (в фигурных скобках) и направление, откуда дует ветер: С - северный, СВ - северо-восточный, В - восточный, ЮВ - юго-восточный, Ю - южный, ЮЗ - юго-западный, З - западный, СЗ - северо-западный.
Видимость - горизонтальная дальность видимости в метрах или километрах. При видимости от 1 до 10 км при отсутствии осадков обычно наблюдается дымка, при ухудшении видимости до 1 км и менее - туман. В сухую погоду видимость может ухудшаться дымом, пылью или мглою.
Явления - указаны атмосферные явления, наблюдавшиеся в срок или в последний час перед сроком; фигурными скобками обозначены явления, наблюдавшиеся между сроками (за 1-3 часа до срока); квадратными скобками обозначены град или гололедные отложения с указанием их диаметра в мм.
Облачность - указаны через наклонную черту общая и нижняя облачность в баллах и высота нижней границы облаков в метрах; квадратными скобками обозначены формы облаков: Ci - перистые, Cs - перисто-слоистые, Cc - перисто-кучевые, Ac - высококучевые, As - высокослоистые, Sc - слоисто-кучевые, Ns - слоисто-дождевые, Cu - кучевые, Cb - кучево-дождевые. Подробнее классификацию облаков см. в Атласе облаков (PDF).
T - Температура воздуха - температура, измеренная на высоте 2 м над землей.
Td - Температура точки росы - температура, при понижении до которой содержащийся в воздухе водяной пар достигнет насыщения.
f - Относительная влажность воздуха - влажноcть воздуха, измеренная на высоте 2 м над землей.
Te - Эффективная температура - температура, которую ощущает одетый по сезону человек в тени. Характеристика душности погоды. При расчете учитывается влияние влажности воздуха и скорости ветра на теплоощущения человека.
Tes - Эффективная температура на солнце - температура, которую ощущает человек, с поправкой на солнечный нагрев. Характеристика знойности погоды. Зависит от высоты солнца над горизонтом, облачности и скорости ветра. Ночью, в пасмурную погоду, а также при ветре 12 м/с и более поправка равна нулю.
P - Атмосферное давление - приведенное к уровню моря атмосферное давление.
Po - Атмосферное давление - измеренное на уровне метеостанции атмосферное давление.
Tmin - Минимальная температура - минимум температуры воздуха на высоте 2 м над землей.
Tmax - Максимальная температура - максимум температуры воздуха на высоте 2 м над землей.
R - Количество осадков - Количество выпавших осадков за период времени, мм. При наведении курсора мыши на число - период времени, за который выпало указанное количество осадков.
R24 - Количество осадков - Количество выпавших осадков за 24 часа, мм.
S - Снежный покров - Высота снежного покрова, см. При наведении курсора мыши на число - состояние снежного покрова и степень покрытия местности в баллах.